TimeAKST,TemperatureF,Dew PointF,Humidity,Sea Level PressureIn,VisibilityMPH,Wind Direction,Wind SpeedMPH,Gust SpeedMPH,PrecipitationIn,Events,Conditions,WindDirDegrees,DateUTC
12:16 AM,8.6,3.2,79,30.44,3.0,ENE,12.7,-,N/A,,Overcast,60,2012-11-07 09:16:00
12:36 AM,8.6,3.2,79,30.44,5.0,ENE,13.8,-,N/A,,Overcast,60,2012-11-07 09:36:00
12:56 AM,8.6,3.2,79,30.45,5.0,ENE,13.8,-,N/A,,Overcast,60,2012-11-07 09:56:00
1:16 AM,8.6,3.2,79,30.45,5.0,ENE,13.8,-,N/A,,Overcast,60,2012-11-07 10:16:00
1:36 AM,8.6,3.2,79,30.45,4.0,ENE,13.8,-,N/A,,Overcast,70,2012-11-07 10:36:00
1:56 AM,8.6,3.2,79,30.45,5.0,ENE,15.0,-,N/A,,Overcast,60,2012-11-07 10:56:00
2:16 AM,8.6,3.2,79,30.45,10.0,ENE,13.8,-,N/A,,Overcast,60,2012-11-07 11:16:00
2:36 AM,8.6,3.2,79,30.45,10.0,ENE,13.8,-,N/A,,Overcast,70,2012-11-07 11:36:00
2:56 AM,8.6,3.2,79,30.45,6.0,ENE,12.7,-,N/A,,Overcast,70,2012-11-07 11:56:00
3:36 AM,8.6,3.2,79,30.45,9.0,ENE,12.7,-,N/A,,Overcast,70,2012-11-07 12:36:00
3:56 AM,8.6,3.2,79,30.45,5.0,ENE,13.8,-,N/A,,Overcast,70,2012-11-07 12:56:00
4:16 AM,8.6,3.2,79,30.45,5.0,ENE,11.5,-,N/A,,Overcast,70,2012-11-07 13:16:00
4:36 AM,8.6,3.2,79,30.45,7.0,ENE,12.7,-,N/A,,Overcast,60,2012-11-07 13:36:00
4:56 AM,8.6,3.2,79,30.45,5.0,ENE,12.7,-,N/A,,Overcast,60,2012-11-07 13:56:00
5:16 AM,8.6,3.2,79,30.45,5.0,ENE,13.8,-,N/A,,Overcast,60,2012-11-07 14:16:00
5:36 AM,8.6,3.2,79,30.45,8.0,ENE,12.7,-,N/A,,Overcast,60,2012-11-07 14:36:00
5:56 AM,8.6,3.2,79,30.45,8.0,ENE,13.8,-,N/A,,Overcast,60,2012-11-07 14:56:00
6:16 AM,8.6,3.2,79,30.46,6.0,ENE,13.8,-,N/A,,Overcast,60,2012-11-07 15:16:00
6:36 AM,8.6,3.2,79,30.45,5.0,ENE,13.8,-,N/A,,Overcast,60,2012-11-07 15:36:00
6:56 AM,8.6,3.2,79,30.45,4.0,ENE,15.0,-,N/A,,Overcast,60,2012-11-07 15:56:00
7:16 AM,8.6,5.0,85,30.46,10.0,NE,13.8,-,N/A,,Overcast,50,2012-11-07 16:16:00
7:36 AM,8.6,5.0,85,30.46,9.0,ENE,12.7,-,N/A,,Overcast,60,2012-11-07 16:36:00
7:56 AM,8.6,5.0,85,30.47,8.0,ENE,13.8,-,N/A,,Overcast,60,2012-11-07 16:56:00
8:16 AM,10.4,3.2,73,30.46,7.0,ENE,13.8,-,N/A,,Overcast,60,2012-11-07 17:16:00
8:36 AM,10.4,5.0,79,30.47,7.0,ENE,13.8,-,N/A,,Overcast,60,2012-11-07 17:36:00
8:56 AM,10.4,5.0,79,30.47,6.0,ENE,13.8,-,N/A,,Overcast,60,2012-11-07 17:56:00
9:16 AM,10.4,6.8,85,30.47,3.0,NE,12.7,-,N/A,,Overcast,50,2012-11-07 18:16:00
9:36 AM,10.4,5.0,79,30.48,8.0,ENE,13.8,-,N/A,,Overcast,60,2012-11-07 18:36:00
9:56 AM,10.4,6.8,85,30.48,8.0,NE,11.5,-,N/A,,Overcast,50,2012-11-07 18:56:00
10:16 AM,10.4,6.8,85,30.49,7.0,ENE,13.8,-,N/A,,Overcast,60,2012-11-07 19:16:00
10:36 AM,10.4,6.8,85,30.49,5.0,NE,13.8,-,N/A,,Overcast,50,2012-11-07 19:36:00
10:56 AM,10.4,6.8,85,30.49,6.0,NE,12.7,-,N/A,,Overcast,50,2012-11-07 19:56:00
11:16 AM,10.4,6.8,85,30.50,7.0,ENE,12.7,-,N/A,,Overcast,60,2012-11-07 20:16:00
11:36 AM,10.4,5.0,79,30.50,10.0,ENE,13.8,-,N/A,,Overcast,60,2012-11-07 20:36:00
11:56 AM,10.4,6.8,85,30.50,10.0,NE,13.8,-,N/A,,Overcast,50,2012-11-07 20:56:00
12:16 PM,10.4,8.6,92,30.51,10.0,NE,12.7,-,N/A,,Overcast,50,2012-11-07 21:16:00
12:36 PM,10.4,6.8,85,30.51,10.0,ENE,11.5,-,N/A,,Overcast,60,2012-11-07 21:36:00
12:56 PM,10.4,6.8,85,30.51,10.0,ENE,12.7,-,N/A,,Overcast,60,2012-11-07 21:56:00
1:16 PM,12.2,6.8,79,30.51,10.0,ENE,10.4,-,N/A,,Overcast,60,2012-11-07 22:16:00
1:36 PM,12.2,6.8,79,30.52,10.0,NE,12.7,-,N/A,,Overcast,50,2012-11-07 22:36:00
1:56 PM,12.2,6.8,79,30.52,10.0,NE,11.5,-,N/A,,Overcast,50,2012-11-07 22:56:00
2:16 PM,12.2,8.6,85,30.51,10.0,NE,12.7,-,N/A,,Overcast,50,2012-11-07 23:16:00
2:36 PM,12.2,8.6,85,30.51,10.0,NE,12.7,-,N/A,,Overcast,50,2012-11-07 23:36:00
2:56 PM,12.2,8.6,85,30.51,10.0,ENE,11.5,-,N/A,,Overcast,60,2012-11-07 23:56:00
3:16 PM,12.2,6.8,79,30.52,10.0,ENE,10.4,-,N/A,,Overcast,60,2012-11-08 00:16:00
3:36 PM,12.2,6.8,79,30.52,10.0,ENE,10.4,-,N/A,,Overcast,60,2012-11-08 00:36:00
3:56 PM,12.2,6.8,79,30.52,10.0,ENE,10.4,-,N/A,,Overcast,60,2012-11-08 00:56:00
4:16 PM,12.2,6.8,79,30.52,10.0,ENE,11.5,-,N/A,,Overcast,60,2012-11-08 01:16:00
4:36 PM,12.2,6.8,79,30.52,10.0,ENE,15.0,-,N/A,,Overcast,60,2012-11-08 01:36:00
4:56 PM,12.2,6.8,79,30.53,10.0,ENE,13.8,-,N/A,,Overcast,60,2012-11-08 01:56:00
5:16 PM,12.2,6.8,79,30.52,10.0,ENE,11.5,-,N/A,,Overcast,60,2012-11-08 02:16:00
5:36 PM,10.4,6.8,85,30.53,10.0,NE,11.5,-,N/A,,Overcast,50,2012-11-08 02:36:00
5:56 PM,10.4,6.8,85,30.53,10.0,ENE,13.8,-,N/A,,Overcast,60,2012-11-08 02:56:00
6:16 PM,10.4,6.8,85,30.53,10.0,ENE,12.7,-,N/A,,Overcast,60,2012-11-08 03:16:00
6:36 PM,10.4,6.8,85,30.53,10.0,ENE,12.7,-,N/A,,Overcast,60,2012-11-08 03:36:00
6:56 PM,10.4,3.2,73,30.53,10.0,ENE,12.7,-,N/A,,Overcast,70,2012-11-08 03:56:00
7:16 PM,10.4,5.0,79,30.53,10.0,ENE,11.5,-,N/A,,Overcast,70,2012-11-08 04:16:00
7:36 PM,10.4,6.8,85,30.52,10.0,ENE,11.5,-,N/A,,Overcast,60,2012-11-08 04:36:00
7:56 PM,10.4,5.0,79,30.52,10.0,ENE,12.7,-,N/A,,Overcast,60,2012-11-08 04:56:00
8:16 PM,10.4,5.0,79,30.51,10.0,ENE,12.7,-,N/A,,Overcast,60,2012-11-08 05:16:00
8:36 PM,10.4,5.0,79,30.51,10.0,ENE,13.8,-,N/A,,Overcast,60,2012-11-08 05:36:00
8:56 PM,10.4,5.0,79,30.51,10.0,ENE,11.5,-,N/A,,Overcast,70,2012-11-08 05:56:00
9:16 PM,10.4,5.0,79,30.51,10.0,ENE,12.7,-,N/A,,Overcast,70,2012-11-08 06:16:00
9:36 PM,10.4,5.0,79,30.51,10.0,ENE,12.7,-,N/A,,Overcast,70,2012-11-08 06:36:00
9:56 PM,10.4,3.2,73,30.51,10.0,ENE,12.7,-,N/A,,Overcast,60,2012-11-08 06:56:00
10:16 PM,10.4,5.0,79,30.51,10.0,NE,11.5,-,N/A,,Overcast,50,2012-11-08 07:16:00
10:36 PM,10.4,6.8,85,30.51,10.0,NE,11.5,-,N/A,,Overcast,50,2012-11-08 07:36:00
10:56 PM,10.4,5.0,79,30.50,10.0,ENE,13.8,-,N/A,,Overcast,60,2012-11-08 07:56:00
11:16 PM,10.4,6.8,85,30.50,10.0,NE,12.7,-,N/A,,Overcast,50,2012-11-08 08:16:00
11:36 PM,10.4,6.8,85,30.50,10.0,NE,12.7,-,N/A,,Overcast,50,2012-11-08 08:36:00
11:56 PM,10.4,6.8,85,30.50,10.0,NE,15.0,-,N/A,,Overcast,50,2012-11-08 08:56:00